Weather History for KIGM - June, 2013

Change the Weather History Date:

Sunday, June 16, 2013

  Actual Average Record
Temperature  
Mean Temperature 79 °F 78 °F  
Max Temperature 96 °F 93 °F 110 °F (1917)
Min Temperature 62 °F 63 °F 40 °F (1907)
Degree Days  
Heating Degree Days 0 0  
Month to date heating degree days 0 0  
Since 1 June heating degree days 0 0  
Since 1 July heating degree days 2899 3100  
Cooling Degree Days 14 13  
Month to date cooling degree days 263 175  
Year to date cooling degree days 485 373  
Since 1 June cooling degree days 263 175  
Growing Degree Days 29 (Base 50)    
Moisture  
Dew Point 16 °F    
Average Humidity 10    
Maximum Humidity 13    
Minimum Humidity 6    
Precipitation  
Precipitation 0.00 in 0.00 in 0.03 in (1946)
Month to date precipitation 0.00 0.01  
Year to date precipitation 1.18 3.47  
Sea Level Pressure  
Sea Level Pressure 29.78 in    
Wind  
Wind Speed 12 mph (SSW)    
Max Wind Speed 30 mph    
Max Gust Speed 37 mph    
Visibility 10 miles    
Events      
T = Trace of Precipitation, MM = Missing Value Source: NWS Daily Summary

Daily Weather History Graph

Daily Weather History Graph

Search for Another Location

Airport or City:

Trip Planner

Search our weather history database for the weather conditions in past years. The results will help you decide how hot, cold, wet, or windy it might be!

Date:

Astronomy

Jun. 16, 2013 Rise Set
Actual Time 5:20 AM MST 7:52 PM MST
Civil Twilight 4:50 AM MST 8:22 PM MST
Nautical Twilight 4:13 AM MST 8:59 PM MST
Astronomical Twilight 3:33 AM MST 9:40 PM MST
Moon 12:45 PM MST (6/16) 12:13 AM MST (6/16)
Length of Visible Light 15h 31m
Length of Day
14h 31m
Waxing Crescent, 51% of the Moon is Illuminated
Jun 16
Waxing Crescent
Jun 23
Full
Jun 29
Last Quarter
Jul 8
New
Jul 15
First Quarter

Hourly Weather History & Observations

Time (MST) Temp. Dew Point Humidity Pressure Visibility Wind Dir Wind Speed Gust Speed Precip Events Conditions
12:51 AM 73.0 °F 7.0 °F 8% 29.74 in 10.0 mi SSW 13.8 mph - N/A   Clear
1:51 AM 73.0 °F 5.0 °F 7% 29.74 in 10.0 mi SSW 13.8 mph - N/A   Clear
2:51 AM 72.0 °F 6.1 °F 8% 29.74 in 10.0 mi South 11.5 mph - N/A   Clear
3:51 AM 64.0 °F 8.1 °F 11% 29.76 in 10.0 mi Variable 3.5 mph - N/A   Clear
4:51 AM 62.1 °F 10.9 °F 13% 29.78 in 10.0 mi Calm Calm - N/A   Clear
5:51 AM 69.1 °F 12.0 °F 11% 29.78 in 10.0 mi South 3.5 mph - N/A   Clear
6:51 AM 77.0 °F 14.0 °F 9% 29.78 in 10.0 mi SSW 5.8 mph - N/A   Clear
7:51 AM 82.0 °F 10.9 °F 7% 29.81 in 10.0 mi Calm Calm - N/A   Clear
8:51 AM 87.1 °F 12.9 °F 6% 29.82 in 10.0 mi WSW 12.7 mph - N/A   Clear
9:51 AM 89.1 °F 14.0 °F 6% 29.82 in 10.0 mi SW 18.4 mph 21.9 mph N/A   Clear
10:51 AM 90.0 °F 16.0 °F 7% 29.82 in 10.0 mi SSW 17.3 mph 25.3 mph N/A   Clear
11:51 AM 91.9 °F 19.9 °F 7% 29.82 in 10.0 mi SW 20.7 mph 29.9 mph N/A   Clear
12:51 PM 93.9 °F 21.0 °F 7% 29.81 in 10.0 mi WSW 18.4 mph 29.9 mph N/A   Clear
1:51 PM 96.1 °F 21.0 °F 7% 29.79 in 10.0 mi SW 23.0 mph 32.2 mph N/A   Clear
2:51 PM 93.9 °F 19.9 °F 7% 29.78 in 10.0 mi SW 11.5 mph 27.6 mph N/A   Clear
3:51 PM 93.9 °F 19.0 °F 7% 29.79 in 10.0 mi SSW 13.8 mph 25.3 mph N/A   Clear
4:51 PM 93.0 °F 19.0 °F 7% 29.77 in 10.0 mi SW 15.0 mph 33.4 mph N/A   Clear
5:51 PM 93.0 °F 18.0 °F 6% 29.75 in 10.0 mi SW 16.1 mph 26.5 mph N/A   Clear
6:51 PM 90.0 °F 18.0 °F 7% 29.75 in 10.0 mi SW 17.3 mph 23.0 mph N/A   Clear
7:51 PM 86.0 °F 19.9 °F 9% 29.76 in 10.0 mi SW 9.2 mph - N/A   Clear
8:51 PM 75.9 °F 19.0 °F 12% 29.77 in 10.0 mi South 9.2 mph - N/A   Clear
9:51 PM 75.9 °F 19.9 °F 12% 29.78 in 10.0 mi South 9.2 mph - N/A   Clear
10:51 PM 75.0 °F 19.9 °F 13% 29.77 in 10.0 mi SSW 12.7 mph - N/A   Clear
11:51 PM 75.0 °F 19.0 °F 12% 29.77 in 10.0 mi SSW 13.8 mph - N/A   Clear